| time (UTC) | temp F | wind direction | speed MPH | gust MPH | rain 1hr in | rain 24hr in | rain mn in | humidity % | barometer mb |
| 20260503205404 | 72 | 205 | 2.0 | 9.0 | 0.00 | 0.00 | 0.00 | 5 | 1014.5 |
| 20260503204904 | 71 | 217 | 2.0 | 6.0 | 0.00 | 0.00 | 0.00 | 6 | 1014.6 |
| 20260503203904 | 70 | 218 | 3.0 | 6.0 | 0.00 | 0.00 | 0.00 | 4 | 1014.8 |
| 20260503202904 | 70 | 224 | 1.0 | 12.0 | 0.00 | 0.00 | 0.00 | 4 | 1014.8 |
| 20260503202404 | 70 | 231 | 5.0 | 13.0 | 0.00 | 0.00 | 0.00 | 4 | 1015.0 |
| 20260503201904 | 70 | 224 | 4.0 | 12.0 | 0.00 | 0.00 | 0.00 | 6 | 1015.0 |
| 20260503201403 | 70 | 216 | 1.0 | 10.0 | 0.00 | 0.00 | 0.00 | 5 | 1015.0 |
| 20260503200907 | 69 | 200 | 5.0 | 12.0 | 0.00 | 0.00 | 0.00 | 6 | 1015.1 |
| 20260503200404 | 69 | 218 | 7.0 | 12.0 | 0.00 | 0.00 | 0.00 | 4 | 1015.1 |
| 20260503195904 | 69 | 199 | 8.0 | 16.0 | 0.00 | 0.00 | 0.00 | 6 | 1015.1 |
| 20260503195404 | 69 | 217 | 7.0 | 13.0 | 0.00 | 0.00 | 0.00 | 6 | 1015.2 |
| 20260503194904 | 69 | 221 | 6.0 | 14.0 | 0.00 | 0.00 | 0.00 | 6 | 1015.2 |
| 20260503193404 | 68 | 204 | 3.0 | 12.0 | 0.00 | 0.00 | 0.00 | 8 | 1015.3 |
| 20260503192904 | 67 | 255 | 2.0 | 6.0 | 0.00 | 0.00 | 0.00 | 11 | 1015.3 |
| 20260503192404 | 67 | 33 | 2.0 | 6.0 | 0.00 | 0.00 | 0.00 | 8 | 1015.4 |
| 20260503191904 | 68 | 254 | 5.0 | 14.0 | 0.00 | 0.00 | 0.00 | 8 | 1015.5 |
| 20260503191404 | 69 | 253 | 3.0 | 7.0 | 0.00 | 0.00 | 0.00 | 8 | 1015.5 |
| 20260503190904 | 69 | 314 | 0.0 | 3.0 | 0.00 | 0.00 | 0.00 | 10 | 1015.5 |
| 20260503185904 | 70 | 349 | 0.0 | 3.0 | 0.00 | 0.00 | 0.00 | 6 | 1015.7 |
| 20260503185403 | 70 | 0 | 2.0 | 6.0 | 0.00 | 0.00 | 0.00 | 4 | 1015.7 |
| 20260503184904 | 70 | 150 | 0.0 | 0.0 | 0.00 | 0.00 | 0.00 | 6 | 1015.8 |
| 20260503184404 | 69 | 150 | 0.0 | 1.0 | 0.00 | 0.00 | 0.00 | 4 | 1015.9 |
| 20260503183905 | 69 | 142 | 1.0 | 5.0 | 0.00 | 0.00 | 0.00 | 9 | 1016.0 |
| 20260503182904 | 68 | 226 | 3.0 | 7.0 | 0.00 | 0.00 | 0.00 | 10 | 1016.0 |
| 20260503182404 | 68 | 231 | 2.0 | 5.0 | 0.00 | 0.00 | 0.00 | 9 | 1016.1 |
| 20260503181904 | 68 | 178 | 1.0 | 5.0 | 0.00 | 0.00 | 0.00 | 9 | 1016.2 |
| 20260503180904 | 67 | 290 | 0.0 | 1.0 | 0.00 | 0.00 | 0.00 | 10 | 1016.4 |
| 20260503180411 | 67 | 290 | 0.0 | 0.0 | 0.00 | 0.00 | 0.00 | 12 | 1016.5 |
| 20260503175904 | 66 | 290 | 0.0 | 0.0 | 0.00 | 0.00 | 0.00 | 11 | 1016.5 |
| 20260503174403 | 65 | 301 | 0.0 | 0.0 | 0.00 | 0.00 | 0.00 | 12 | 1016.8 |
| 20260503173904 | 64 | 303 | 0.0 | 0.0 | 0.00 | 0.00 | 0.00 | 14 | 1016.9 |
| 20260503173404 | 64 | 327 | 0.0 | 2.0 | 0.00 | 0.00 | 0.00 | 15 | 1017.0 |
| 20260503172404 | 63 | 14 | 0.0 | 0.0 | 0.00 | 0.00 | 0.00 | 18 | 1017.1 |
| 20260503171904 | 62 | 15 | 0.0 | 0.0 | 0.00 | 0.00 | 0.00 | 21 | 1017.1 |
| 20260503171404 | 61 | 15 | 0.0 | 0.0 | 0.00 | 0.00 | 0.00 | 24 | 1017.1 |
| 20260503170904 | 60 | 16 | 0.0 | 0.0 | 0.00 | 0.00 | 0.00 | 25 | 1017.3 |
| 20260503170404 | 59 | 15 | 0.0 | 0.0 | 0.00 | 0.00 | 0.00 | 25 | 1017.3 |
| 20260503150904 | 44 | 32 | 0.0 | 0.0 | 0.00 | 0.00 | 0.00 | 49 | 1018.9 |
| 20260503131404 | 30 | 207 | 0.0 | 0.0 | 0.00 | 0.00 | 0.00 | 74 | 1019.7 |
| 20260503130904 | 29 | 207 | 0.0 | 0.0 | 0.00 | 0.00 | 0.00 | 73 | 1019.6 |
| 20260503130411 | 29 | 207 | 0.0 | 0.0 | 0.00 | 0.00 | 0.00 | 73 | 1019.5 |
| 20260503110404 | 30 | 208 | 0.0 | 0.0 | 0.00 | 0.00 | 0.00 | 69 | 1019.2 |
| 20260503090404 | 33 | 208 | 0.0 | 0.0 | 0.00 | 0.00 | 0.00 | 63 | 1018.7 |
| 20260503081403 | 34 | 208 | 0.0 | 0.0 | 0.00 | 0.00 | 0.00 | 61 | 1018.8 |
| 20260503080904 | 34 | 208 | 0.0 | 0.0 | 0.00 | 0.00 | 0.00 | 61 | 1018.8 |
| 20260503072904 | 35 | 208 | 0.0 | 0.0 | 0.00 | 0.00 | 0.00 | 58 | 1018.8 |
| 20260503072404 | 35 | 208 | 0.0 | 0.0 | 0.00 | 0.00 | 0.00 | 57 | 1018.8 |
| 20260503071904 | 36 | 208 | 0.0 | 0.0 | 0.00 | 0.00 | 0.00 | 57 | 1018.8 |
| 20260503071404 | 36 | 208 | 0.0 | 0.0 | 0.00 | 0.00 | 0.00 | 57 | 1018.8 |
| 20260503070904 | 36 | 208 | 0.0 | 0.0 | 0.00 | 0.00 | 0.00 | 57 | 1018.8 |
| 20260503070404 | 36 | 208 | 0.0 | 0.0 | 0.00 | 0.00 | 0.00 | 57 | 1018.8 |
| 20260503054904 | 40 | 208 | 0.0 | 0.0 | 0.00 | 0.00 | 0.00 | 52 | 1018.7 |
| 20260503054404 | 40 | 208 | 0.0 | 0.0 | 0.00 | 0.00 | 0.00 | 52 | 1018.7 |
| 20260503053904 | 41 | 208 | 0.0 | 0.0 | 0.00 | 0.00 | 0.00 | 53 | 1018.6 |
| 20260503052903 | 41 | 208 | 0.0 | 0.0 | 0.00 | 0.00 | 0.00 | 53 | 1018.6 |
| 20260503052404 | 41 | 208 | 0.0 | 0.0 | 0.00 | 0.00 | 0.00 | 52 | 1018.6 |
| 20260503050403 | 43 | 208 | 0.0 | 0.0 | 0.00 | 0.00 | 0.00 | 51 | 1018.6 |
| 20260503045904 | 43 | 208 | 0.0 | 0.0 | 0.00 | 0.00 | 0.00 | 51 | 1018.5 |
| 20260503044404 | 45 | 208 | 0.0 | 0.0 | 0.00 | 0.00 | 0.00 | 48 | 1018.6 |
| 20260503043907 | 45 | 208 | 0.0 | 0.0 | 0.00 | 0.00 | 0.00 | 47 | 1018.6 |
| 20260503043404 | 46 | 208 | 0.0 | 0.0 | 0.00 | 0.00 | 0.00 | 47 | 1018.6 |
| 20260503042405 | 47 | 208 | 0.0 | 0.0 | 0.00 | 0.00 | 0.00 | 45 | 1018.5 |
| 20260503041904 | 47 | 208 | 0.0 | 0.0 | 0.00 | 0.00 | 0.00 | 43 | 1018.6 |
| 20260503041404 | 47 | 208 | 0.0 | 0.0 | 0.00 | 0.00 | 0.00 | 42 | 1018.6 |
| 20260503035904 | 49 | 208 | 0.0 | 0.0 | 0.00 | 0.00 | 0.00 | 40 | 1018.6 |
| 20260503035404 | 50 | 208 | 0.0 | 0.0 | 0.00 | 0.00 | 0.00 | 41 | 1018.5 |
| 20260503034905 | 50 | 208 | 0.0 | 0.0 | 0.00 | 0.00 | 0.00 | 37 | 1018.5 |
| 20260503033904 | 51 | 208 | 0.0 | 0.0 | 0.00 | 0.00 | 0.00 | 37 | 1018.3 |
| 20260503033404 | 52 | 208 | 0.0 | 0.0 | 0.00 | 0.00 | 0.00 | 36 | 1018.2 |
| 20260503032904 | 52 | 208 | 0.0 | 0.0 | 0.00 | 0.00 | 0.00 | 34 | 1018.1 |
| 20260503032404 | 53 | 208 | 0.0 | 0.0 | 0.00 | 0.00 | 0.00 | 28 | 1018.1 |
| 20260503031404 | 54 | 208 | 0.0 | 0.0 | 0.00 | 0.00 | 0.00 | 27 | 1018.0 |
| 20260503030904 | 54 | 208 | 1.0 | 3.0 | 0.00 | 0.00 | 0.00 | 25 | 1018.0 |
| 20260503030404 | 55 | 210 | 0.0 | 3.0 | 0.00 | 0.00 | 0.00 | 24 | 1017.8 |
| 20260503025904 | 55 | 216 | 0.0 | 1.0 | 0.00 | 0.00 | 0.00 | 24 | 1017.8 |
| 20260503023904 | 57 | 217 | 0.0 | 0.0 | 0.00 | 0.00 | 0.00 | 21 | 1017.6 |
| 20260503023404 | 58 | 217 | 0.0 | 3.0 | 0.00 | 0.00 | 0.00 | 21 | 1017.6 |
| 20260503022904 | 59 | 244 | 0.0 | 0.0 | 0.00 | 0.00 | 0.00 | 20 | 1017.5 |
| 20260503022404 | 59 | 244 | 0.0 | 0.0 | 0.00 | 0.00 | 0.00 | 21 | 1017.5 |
| 20260503021903 | 60 | 244 | 0.0 | 0.0 | 0.00 | 0.00 | 0.00 | 20 | 1017.3 |
| 20260503021404 | 60 | 244 | 0.0 | 0.0 | 0.00 | 0.00 | 0.00 | 20 | 1017.4 |
| 20260503020904 | 61 | 244 | 0.0 | 0.0 | 0.00 | 0.00 | 0.00 | 16 | 1017.3 |
| 20260503015904 | 61 | 244 | 0.0 | 0.0 | 0.00 | 0.00 | 0.00 | 14 | 1017.3 |
| 20260503015404 | 62 | 244 | 0.0 | 0.0 | 0.00 | 0.00 | 0.00 | 15 | 1017.2 |
| 20260503014904 | 62 | 245 | 0.0 | 2.0 | 0.00 | 0.00 | 0.00 | 14 | 1017.2 |
| 20260503014404 | 62 | 238 | 0.0 | 0.0 | 0.00 | 0.00 | 0.00 | 15 | 1017.2 |
| 20260503013904 | 63 | 238 | 0.0 | 0.0 | 0.00 | 0.00 | 0.00 | 13 | 1017.2 |
| 20260503013404 | 63 | 238 | 0.0 | 6.0 | 0.00 | 0.00 | 0.00 | 12 | 1017.2 |
| 20260503012904 | 63 | 226 | 1.0 | 6.0 | 0.00 | 0.00 | 0.00 | 12 | 1017.2 |
| 20260503011404 | 63 | 215 | 1.0 | 3.0 | 0.00 | 0.00 | 0.00 | 13 | 1017.2 |
| 20260503010904 | 63 | 216 | 5.0 | 9.0 | 0.00 | 0.00 | 0.00 | 13 | 1017.2 |
| 20260503010407 | 64 | 222 | 2.0 | 5.0 | 0.00 | 0.00 | 0.00 | 12 | 1017.2 |
| 20260503005904 | 64 | 229 | 3.0 | 7.0 | 0.00 | 0.00 | 0.00 | 11 | 1017.2 |
| 20260503005403 | 65 | 229 | 2.0 | 6.0 | 0.00 | 0.00 | 0.00 | 9 | 1017.2 |
| 20260503004904 | 65 | 220 | 0.0 | 1.0 | 0.00 | 0.00 | 0.00 | 9 | 1017.2 |
| 20260503004404 | 65 | 220 | 0.0 | 3.0 | 0.00 | 0.00 | 0.00 | 9 | 1017.3 |
| 20260503003904 | 66 | 216 | 2.0 | 6.0 | 0.00 | 0.00 | 0.00 | 8 | 1017.4 |
| 20260503003404 | 66 | 215 | 6.0 | 10.0 | 0.00 | 0.00 | 0.00 | 10 | 1017.3 |
| 20260503002404 | 66 | 212 | 5.0 | 14.0 | 0.00 | 0.00 | 0.00 | 8 | 1017.4 |
| 20260503001904 | 66 | 209 | 6.0 | 12.0 | 0.00 | 0.00 | 0.00 | 10 | 1017.3 |
| 20260503001404 | 67 | 208 | 6.0 | 10.0 | 0.00 | 0.00 | 0.00 | 7 | 1017.3 |
| 20260503000904 | 67 | 217 | 3.0 | 8.0 | 0.00 | 0.00 | 0.00 | 8 | 1017.3 |
| 20260503000404 | 67 | 215 | 5.0 | 10.0 | 0.00 | 0.00 | 0.00 | 9 | 1017.3 |
| 20260502235904 | 67 | 209 | 3.0 | 8.0 | 0.00 | 0.00 | 0.00 | 9 | 1017.4 |
| 20260502235404 | 67 | 219 | 7.0 | 14.0 | 0.00 | 0.00 | 0.00 | 9 | 1017.5 |
| 20260502234904 | 67 | 225 | 7.0 | 10.0 | 0.00 | 0.00 | 0.00 | 9 | 1017.5 |
| 20260502234404 | 67 | 220 | 4.0 | 8.0 | 0.00 | 0.00 | 0.00 | 7 | 1017.5 |
| 20260502233404 | 68 | 213 | 5.0 | 9.0 | 0.00 | 0.00 | 0.00 | 7 | 1017.5 |
| 20260502232911 | 68 | 232 | 3.0 | 7.0 | 0.00 | 0.00 | 0.00 | 6 | 1017.6 |
| 20260502231904 | 67 | 274 | 2.0 | 7.0 | 0.00 | 0.00 | 0.00 | 8 | 1017.7 |
| 20260502230904 | 67 | 230 | 4.0 | 9.0 | 0.00 | 0.00 | 0.00 | 6 | 1017.6 |
| 20260502225904 | 67 | 216 | 2.0 | 7.0 | 0.00 | 0.00 | 0.00 | 8 | 1017.6 |
| 20260502225404 | 67 | 215 | 1.0 | 6.0 | 0.00 | 0.00 | 0.00 | 8 | 1017.7 |
| 20260502224903 | 68 | 215 | 2.0 | 9.0 | 0.00 | 0.00 | 0.00 | 9 | 1017.8 |
| 20260502224404 | 68 | 209 | 1.0 | 7.0 | 0.00 | 0.00 | 0.00 | 5 | 1017.9 |
| 20260502223404 | 69 | 234 | 3.0 | 7.0 | 0.00 | 0.00 | 0.00 | 7 | 1018.0 |
| 20260502222905 | 68 | 223 | 1.0 | 12.0 | 0.00 | 0.00 | 0.00 | 8 | 1018.1 |
| 20260502222404 | 68 | 219 | 6.0 | 12.0 | 0.00 | 0.00 | 0.00 | 5 | 1018.2 |
| 20260502221404 | 69 | 227 | 2.0 | 8.0 | 0.00 | 0.00 | 0.00 | 8 | 1018.3 |
| 20260502220904 | 69 | 252 | 2.0 | 7.0 | 0.00 | 0.00 | 0.00 | 5 | 1018.4 |
| 20260502220404 | 68 | 253 | 1.0 | 5.0 | 0.00 | 0.00 | 0.00 | 5 | 1018.5 |
| 20260502215904 | 68 | 256 | 1.0 | 7.0 | 0.00 | 0.00 | 0.00 | 6 | 1018.5 |
| 20260502215419 | 68 | 241 | 2.0 | 6.0 | 0.00 | 0.00 | 0.00 | 8 | 1018.6 |
| 20260502214904 | 68 | 253 | 2.0 | 3.0 | 0.00 | 0.00 | 0.00 | 7 | 1018.7 |
| 20260502214404 | 68 | 231 | 1.0 | 6.0 | 0.00 | 0.00 | 0.00 | 8 | 1018.7 |
| 20260502213904 | 68 | 241 | 6.0 | 12.0 | 0.00 | 0.00 | 0.00 | 7 | 1018.8 |
| 20260502212904 | 68 | 228 | 7.0 | 12.0 | 0.00 | 0.00 | 0.00 | 9 | 1018.8 |
| 20260502212404 | 68 | 216 | 5.0 | 14.0 | 0.00 | 0.00 | 0.00 | 10 | 1018.9 |
| 20260502211904 | 68 | 219 | 3.0 | 8.0 | 0.00 | 0.00 | 0.00 | 8 | 1018.9 |
| 20260502211404 | 68 | 237 | 4.0 | 9.0 | 0.00 | 0.00 | 0.00 | 9 | 1018.9 |
| 20260502210904 | 68 | 217 | 3.0 | 10.0 | 0.00 | 0.00 | 0.00 | 9 | 1018.9 |
| 20260502210405 | 68 | 208 | 3.0 | 10.0 | 0.00 | 0.00 | 0.00 | 9 | 1019.0 |
| 20260502205904 | 68 | 216 | 7.0 | 12.0 | 0.00 | 0.00 | 0.00 | 9 | 1019.0 |